Location: ??
(35.5090°N, 139.6783°E)
Time: 18:59:05
(UTC+00:00)

SPOT 1/Viking Rocket - Pass Details

Date: 08 November 2025
Orbit: 773 x 788 km, 98.2° (Epoch: 08 December)

Event Time Altitude Azimuth Distance (km) Brightness Sun altitude
Rises 08:36:08 0° 151° (SSE) 3,241 6.6 -11.8°
Reaches altitude 10° 08:38:30 10° 146° (SE) 2,320 5.8 -12.3°
Maximum altitude 08:43:23 48° 73° (ENE) 1,014 3.7 -13.2°
Drops below altitude 10° 08:48:20 10° 360° (N) 2,343 5.9 -14.2°
Sets 08:50:44 0° 355° (N) 3,278 6.7 -14.7°
